Weather reports worldwide

Advertisment
Manresa, Spain (8174): temperature & dewpoint: 08.12.2018 00:00:00 - 14.12.2018 00:00:00 (CET)Manresa, Spain (8174): wind speed & gusts: 08.12.2018 00:00:00 - 14.12.2018 00:00:00 (CET)Manresa, Spain (8174): wind direction: 08.12.2018 00:00:00 - 14.12.2018 00:00:00 (CET)Manresa, Spain (8174): reduced air pressure: 08.12.2018 00:00:00 - 14.12.2018 00:00:00 (CET)Manresa, Spain (8174): visibility: 08.12.2018 00:00:00 - 14.12.2018 00:00:00 (CET)Manresa, Spain (8174): sunshine duration: 08.12.2018 00:00:00 - 14.12.2018 00:00:00 (CET)Manresa, Spain (8174): precipitation: 08.12.2018 00:00:00 - 14.12.2018 00:00:00 (CET)
Date & Time tt [°C] td [°C] ff [km/h] ff [kn] fx [km/h] fx [kn] dd ppp [hPa] vv [km] sd [min] rr [mm]
14.12.2018 00:00:00 - - - - - - - - - - -
13.12.2018 23:00:00 - - - - - - - - - - -
13.12.2018 22:00:00 - - - - - - - - - - -
13.12.2018 21:00:00 - - - - - - - - - - -
13.12.2018 20:00:00 - - - - - - - - - - -
13.12.2018 19:00:00 - - - - - - - - - - -
13.12.2018 18:00:00 - - - - - - - - - - -
13.12.2018 17:00:00 - - - - - - - - - - -
13.12.2018 16:00:00 - - - - - - - - - - -
13.12.2018 15:00:00 7,6 6,5 4 2 6 3 W 1004,6 1,1 0 0,4
13.12.2018 14:00:00 7,6 6,4 1 1 5 3 NNW 1005,3 1,7 0 0,2
13.12.2018 13:00:00 7,0 5,9 5 3 8 5 ENE 1006,6 1,5 0 -
13.12.2018 12:00:00 6,8 5,8 3 2 8 4 NNE 1008,2 1,7 0 0,6
13.12.2018 11:00:00 6,5 5,3 3 2 8 5 NE 1009,0 2,4 0 0,0
13.12.2018 10:00:00 6,2 4,6 3 2 7 4 SW 1009,3 3,8 0 0,0
13.12.2018 09:00:00 5,8 4,6 2 1 10 5 W 1009,1 2,6 0 0,0
13.12.2018 08:00:00 5,6 4,6 5 3 8 4 NNE 1009,5 2,8 0 0,0
13.12.2018 07:00:00 5,1 4,1 3 2 10 5 W 1010,3 2,7 0 -
13.12.2018 06:00:00 5,6 4,6 5 3 9 5 ENE 1010,8 2,3 0 0,0
13.12.2018 05:00:00 5,4 4,5 2 1 5 3 WNW 1011,9 2,0 0 0,0
13.12.2018 04:00:00 5,6 4,5 3 2 5 3 W 1013,1 3,6 0 0,0
13.12.2018 03:00:00 6,1 4,8 2 1 6 4 E 1013,5 3,0 0 0,0
13.12.2018 02:00:00 6,9 5,0 3 1 5 3 NE 1013,8 4,2 0 0,0
13.12.2018 01:00:00 7,4 5,3 1 1 6 3 E 1014,7 5 0 -
13.12.2018 00:00:00 7,5 5,5 2 1 6 3 W 1015,7 7 0 0,0
12.12.2018 23:00:00 7,8 5,5 3 1 5 3 SW 1016,1 7 0 0,0
12.12.2018 22:00:00 8,1 5,5 2 1 6 3 NNW 1016,8 6 0 0,0
12.12.2018 21:00:00 8,3 5,6 3 2 8 4 NE 1017,0 6 0 0,0
12.12.2018 20:00:00 8,7 5,5 3 2 7 4 WSW 1017,2 7 0 0,0
12.12.2018 19:00:00 9,0 5,6 3 2 6 4 NE 1017,4 8 0 -
12.12.2018 18:00:00 9,4 5,6 4 2 9 5 NE 1017,4 10 0 0,0
12.12.2018 17:00:00 9,9 5,3 5 3 8 5 W 1017,8 8 0 0,0
12.12.2018 16:00:00 11,0 5,9 4 2 9 5 W 1017,5 10 0 0,0
12.12.2018 15:00:00 10,9 5,8 6 3 13 7 NNE 1017,8 11 47 0,0
12.12.2018 14:00:00 - - - - - - - - - - -
12.12.2018 13:00:00 - - - - - - - - - - -
12.12.2018 12:00:00 6,3 3,0 3 1 8 4 W 1021,2 10 55 0,0
12.12.2018 11:00:00 3,7 2,5 3 2 5 3 WNW 1022,2 5 0 0,0
12.12.2018 10:00:00 2,5 1,7 3 2 9 5 E 1022,4 3,9 0 0,0
12.12.2018 09:00:00 1,8 1,3 2 1 5 3 NE 1022,2 3,5 0 0,0
12.12.2018 08:00:00 1,2 0,9 2 1 6 4 E 1022,3 2,3 0 0,0
12.12.2018 07:00:00 1,1 0,6 3 2 7 4 NNE 1022,1 0,7 0 -
12.12.2018 06:00:00 0,9 0,4 4 2 10 5 E 1021,6 0,8 0 0,0
12.12.2018 05:00:00 1,1 0,6 3 2 6 3 N 1021,9 1,3 0 0,0
12.12.2018 04:00:00 1,3 0,6 2 1 6 3 NE 1021,7 2,5 0 0,0
12.12.2018 03:00:00 1,6 1,1 3 2 6 3 WSW 1021,7 2,7 0 0,0
12.12.2018 02:00:00 2,1 1,5 3 2 7 4 N 1021,5 2,6 0 0,0
12.12.2018 01:00:00 2,4 1,7 3 2 6 3 NNE 1021,7 3,9 0 -
12.12.2018 00:00:00 3,0 2,3 3 1 5 3 NNE 1021,6 2,5 0 0,0
11.12.2018 23:00:00 3,8 2,9 2 1 8 4 NNE 1021,4 1,7 0 0,0
11.12.2018 22:00:00 4,1 3,2 4 2 6 4 NNE 1021,5 2,7 0 0,0
11.12.2018 21:00:00 4,9 3,9 4 2 7 4 NNE 1021,3 3,3 0 0,0
11.12.2018 20:00:00 5,6 4,5 2 1 5 3 N 1021,0 4,0 0 0,0
11.12.2018 19:00:00 6,3 4,6 0 0 4 2 N 1020,8 4,8 0 -
11.12.2018 18:00:00 7,4 4,8 1 1 4 2 N 1020,7 5 0 0,0
11.12.2018 17:00:00 9,1 5,5 1 1 5 3 WSW 1020,3 8 12 0,0
11.12.2018 16:00:00 10,1 5,1 4 2 7 4 NNE 1020,4 13 60 0,0
11.12.2018 15:00:00 9,8 4,8 4 2 7 4 NNE 1020,8 13 60 0,0
11.12.2018 14:00:00 8,0 4,3 3 2 6 3 NNE 1022,2 14 60 0,0
11.12.2018 13:00:00 5,1 2,9 3 1 6 3 NNE 1023,8 8 52 -
11.12.2018 12:00:00 2,2 1,6 4 2 9 5 SSW - - 0 0,0
11.12.2018 11:00:00 1,4 1,1 3 2 8 4 NE 1025,8 0,6 0 0,0
11.12.2018 10:00:00 0,4 0,0 4 2 9 5 ENE 1025,8 0,2 0 0,0
11.12.2018 09:00:00 0,3 -0,1 3 1 10 5 NE - - 0 0,0
11.12.2018 08:00:00 0,6 0,2 5 3 9 5 NE 1025,7 3,0 0 0,0
11.12.2018 07:00:00 1,0 0,6 2 1 5 3 WSW 1025,7 1,9 0 -
11.12.2018 06:00:00 0,9 0,4 1 1 8 4 NW 1025,8 0,2 0 0,0
11.12.2018 05:00:00 1,0 0,6 6 3 9 5 NNE 1026,2 0,4 0 0,0
11.12.2018 04:00:00 1,0 0,4 4 2 8 4 ENE - - 0 0,0
11.12.2018 03:00:00 1,2 0,4 2 1 5 3 NNE 1027,1 4,6 0 0,0
11.12.2018 02:00:00 1,9 1,3 1 1 5 3 N 1027,4 3,2 0 0,0
11.12.2018 01:00:00 2,1 1,3 1 1 5 3 N 1028,0 2,8 0 -
11.12.2018 00:00:00 2,7 1,9 4 2 9 5 NNE 1028,5 3,2 0 0,0
10.12.2018 23:00:00 3,6 2,5 3 2 6 4 NE 1028,5 4,2 0 0,0
10.12.2018 22:00:00 4,2 3,0 3 1 8 5 N 1028,6 7 0 0,0
10.12.2018 21:00:00 5,3 3,9 5 3 9 5 NE 1028,7 8 0 0,0
10.12.2018 20:00:00 6,2 4,1 2 1 5 3 W 1028,5 9 0 0,0
10.12.2018 19:00:00 7,5 4,6 2 1 7 4 NNE 1028,2 12 0 -
10.12.2018 18:00:00 9,0 5,0 5 3 8 4 ENE 1027,9 9 0 0,0
10.12.2018 17:00:00 10,4 5,1 3 2 9 5 N 1027,5 14 16 0,0
10.12.2018 16:00:00 11,5 5,3 4 2 15 8 N 1027,4 17 60 0,0
10.12.2018 15:00:00 11,5 5,6 3 2 10 5 N 1027,5 20 60 0,0
10.12.2018 14:00:00 10,6 5,3 4 2 10 5 W 1028,2 20 46 0,0
10.12.2018 13:00:00 10,3 4,8 5 3 13 7 NNE 1029,0 15 60 -
10.12.2018 12:00:00 9,6 5,5 7 4 15 8 NE 1029,9 16 60 0,0
10.12.2018 11:00:00 7,7 4,1 10 5 18 10 ENE 1030,7 18 60 0,0
10.12.2018 10:00:00 6,0 3,4 9 5 14 8 ENE 1030,7 18 34 0,0
10.12.2018 09:00:00 3,7 2,5 9 5 14 7 ENE 1030,4 15 0 0,0
10.12.2018 08:00:00 3,1 2,3 7 4 10 6 NE 1030,3 14 0 0,0
10.12.2018 07:00:00 2,4 1,3 3 2 13 7 N 1030,0 10 0 -
10.12.2018 06:00:00 3,9 2,3 10 5 15 8 ENE 1029,5 17 0 0,0
10.12.2018 05:00:00 3,3 1,9 7 4 16 9 NE 1029,9 20 0 0,0
10.12.2018 04:00:00 3,4 2,1 8 4 19 10 NNE 1029,7 15 0 0,0
10.12.2018 03:00:00 4,2 2,5 8 5 18 10 ENE 1029,6 20 0 0,0
10.12.2018 02:00:00 4,1 2,7 7 4 17 9 NNE 1029,3 18 0 0,0
10.12.2018 01:00:00 4,7 3,2 9 5 16 9 NNE 1029,6 18 0 -
10.12.2018 00:00:00 5,4 3,6 3 2 9 5 ENE 1029,0 15 0 0,0
09.12.2018 23:00:00 7,9 4,3 4 2 17 9 W 1027,9 20 0 0,0
09.12.2018 22:00:00 7,6 4,6 6 3 14 8 ENE 1027,5 18 0 0,0
09.12.2018 21:00:00 9,1 5,3 4 2 10 5 ESE 1026,2 19 0 0,0
09.12.2018 20:00:00 10,4 5,6 3 2 17 9 NE 1025,4 20 0 0,0
09.12.2018 19:00:00 10,0 6,4 5 3 10 5 E 1024,4 20 0 -
09.12.2018 18:00:00 11,9 6,5 3 2 13 7 ESE 1023,3 20 0 0,0
09.12.2018 17:00:00 14,3 6,8 6 3 27 14 W 1022,8 20 44 0,0
09.12.2018 16:00:00 15,2 6,2 13 7 30 16 WNW 1021,9 20 60 0,0
09.12.2018 15:00:00 14,9 6,7 18 10 33 18 W 1022,0 20 60 0,0
09.12.2018 14:00:00 14,1 6,2 14 8 29 16 WNW 1022,8 20 60 0,0
09.12.2018 13:00:00 11,4 5,9 7 4 13 7 NE 1024,1 20 60 -
09.12.2018 12:00:00 9,1 5,3 6 3 10 5 NNE 1025,6 20 60 0,0
09.12.2018 11:00:00 6,6 3,8 5 3 13 7 NNE 1026,8 20 60 0,0
09.12.2018 10:00:00 3,6 2,1 9 5 16 9 NNE 1027,3 20 36 0,0
09.12.2018 09:00:00 1,6 0,9 10 5 15 8 NNE 1027,3 15 0 0,0
09.12.2018 08:00:00 1,0 0,4 7 4 11 6 NNE 1027,1 9 0 0,0
09.12.2018 07:00:00 1,5 0,9 4 2 16 8 N 1026,6 6 0 -
09.12.2018 06:00:00 2,2 1,5 10 5 21 11 NE 1026,4 10 0 0,0
09.12.2018 05:00:00 2,3 1,5 11 6 23 12 NE 1026,4 9 0 0,0
09.12.2018 04:00:00 2,5 1,7 10 5 16 9 NE 1026,9 7 0 0,0
09.12.2018 03:00:00 2,4 1,7 6 3 14 8 N 1027,3 7 0 0,0
09.12.2018 02:00:00 2,6 1,7 6 4 11 6 NNE 1027,2 7 0 0,0
09.12.2018 01:00:00 3,2 2,3 6 3 10 5 N 1027,5 6 0 -
09.12.2018 00:00:00 3,5 2,7 5 3 9 5 NE 1028,0 6 0 0,0
08.12.2018 23:00:00 4,2 3,2 4 2 10 6 NNE 1027,9 7 0 0,0
08.12.2018 22:00:00 4,8 3,6 4 2 9 5 N 1028,0 7 0 0,0
08.12.2018 21:00:00 5,5 4,1 6 3 10 5 NNE 1027,9 10 0 0,0
08.12.2018 20:00:00 6,5 4,6 5 3 13 7 NNE 1028,1 11 0 0,0
08.12.2018 19:00:00 8,0 5,3 8 4 13 7 ENE 1027,6 14 0 -
08.12.2018 18:00:00 9,0 5,8 6 3 13 7 E 1027,1 18 0 0,0
08.12.2018 17:00:00 10,1 5,6 7 4 23 12 ENE 1027,0 17 41 0,0
08.12.2018 16:00:00 10,8 5,9 10 5 17 9 ENE 1026,7 19 60 0,0
08.12.2018 15:00:00 10,9 6,2 9 5 17 9 NE 1026,9 20 60 0,0
08.12.2018 14:00:00 10,3 6,1 10 5 18 10 NNE 1027,4 17 60 0,0
08.12.2018 13:00:00 10,1 6,1 10 5 17 9 NE 1027,7 17 40 -
08.12.2018 12:00:00 9,1 5,6 6 4 12 6 NE 1028,4 18 12 0,0
08.12.2018 11:00:00 7,3 5,5 3 1 7 4 W 1028,8 9 0 0,0
08.12.2018 10:00:00 6,7 5,3 3 1 6 4 NNW 1028,0 7 0 0,0
08.12.2018 09:00:00 5,7 4,6 2 1 7 4 W 1027,7 7 0 0,0
08.12.2018 08:00:00 6,2 5,1 4 2 7 4 NNE 1027,0 7 0 0,0
08.12.2018 07:00:00 6,0 4,8 1 1 5 3 NNW 1026,7 10 0 -
08.12.2018 06:00:00 5,8 4,5 1 1 5 3 WSW 1025,9 8 0 0,0
08.12.2018 05:00:00 5,8 4,3 3 2 6 3 W 1026,2 8 0 0,0
08.12.2018 04:00:00 5,7 4,5 2 1 4 2 N 1026,1 11 0 0,0
08.12.2018 03:00:00 5,4 4,3 3 1 6 3 S 1025,7 9 0 0,0
08.12.2018 02:00:00 5,1 4,1 2 1 6 3 WSW 1025,4 11 0 0,0
08.12.2018 01:00:00 4,9 3,8 3 1 5 3 S 1025,4 6 0 -
08.12.2018 00:00:00 5,6 4,3 2 1 4 2 NW 1025,0 8 0 0,0

tt = temperature
td = dewpoint
ff = wind speed
fx = gusts
dd = wind direction
ppp = reduced air pressure
vv = visibility
sd = sunshine duration
rr = precipitation

Next stations